Temp
11 11 11 11 11 11 11 11 11 11 11 10 10 10 9 9 9 8 8 8 8 8 8 8 8 8 8 7 7 7 7 7 7 6 6 6 6 6 6 6 6 6 6 6 6 6 6 6 6 5 5 5 5 5 5 5 5 5 4 4 4 4 4 4 3 3 3 2 2
11 11 11 11 11 11 11 11 11 10 10 10 10 9 9 9 8 8 8 8 8 8 8 8 7 7 7 7 7 7 7 6 6 6 6 6 6 6 6 6 6 6 6 6 6 5 5 5 5 5 5 5 5 5 5 4 4 4 4 4 4 4 4 4 3 3 3 2 2
11 11 11 10 10 10 10 10 10 10 10 10 9 9 9 8 8 8 8 8 7 7 7 7 7 7 7 7 7 6 6 6 6 6 6 6 6 6 6 6 6 6 5 5 5 5 5 5 5 5 5 5 5 5 5 4 4 4 4 4 4 4 4 3 3 3 3 2 2
10 10 10 10 10 10 10 10 10 10 9 9 9 9 8 8 8 8 7 7 7 7 7 7 7 7 7 6 6 6 6 6 6 6 6 6 6 6 6 5 5 5 5 5 5 5 5 5 5 5 5 5 4 4 4 4 4 4 4 4 4 4 3 3 3 3 3 2 2
10 10 10 10 10 10 10 9 9 9 9 9 9 8 8 8 8 7 7 7 7 7 7 7 6 6 6 6 6 6 6 6 6 6 6 6 5 5 5 5 5 5 5 5 5 5 5 5 4 4 4 4 4 4 4 4 4 4 4 3 3 3 3 3 3 2 2 2 2
9 9 9 9 9 9 9 9 9 9 9 8 8 8 8 7 7 7 7 7 7 6 6 6 6 6 6 6 6 6 5 5 5 5 5 5 5 5 5 5 5 5 5 5 5 4 4 4 4 4 4 4 4 4 4 4 3 3 3 3 3 3 3 3 2 2 2 2 1
9 9 9 9 9 9 9 9 8 8 8 8 8 7 7 7 7 7 7 6 6 6 6 6 6 5 5 5 5 5 5 5 5 5 5 5 5 5 5 5 5 5 4 4 4 4 4 4 4 4 4 4 4 4 3 3 3 3 3 3 3 3 2 2 2 2 1 1 1
9 9 9 9 8 8 8 8 8 8 8 8 7 7 7 7 7 6 6 6 6 6 5 5 5 5 5 5 5 5 5 5 5 5 5 5 5 5 5 4 4 4 4 4 4 4 4 4 4 4 4 3 3 3 3 3 3 3 3 3 3 2 2 2 2 2 1 1 1
8 8 8 8 8 8 8 8 8 7 7 7 7 7 7 6 6 6 6 6 5 5 5 5 5 5 5 5 5 5 5 5 5 5 5 4 4 4 4 4 4 4 4 4 4 4 4 4 4 3 3 3 3 3 3 3 3 3 3 3 3 2 2 2 2 1 1 1 1
8 8 8 8 8 7 7 7 7 7 7 7 7 6 6 6 6 6 5 5 5 5 5 5 5 5 5 5 5 5 5 4 4 4 4 4 4 4 4 4 4 4 4 4 4 4 4 3 3 3 3 3 3 3 3 3 3 3 2 2 2 2 2 2 1 1 1 1 0
8 8 7 7 7 7 7 7 7 7 6 6 6 6 6 6 6 5 5 5 5 5 5 5 5 5 4 4 4 4 4 4 4 4 4 4 4 4 4 4 4 4 4 3 3 3 3 3 3 3 3 3 3 3 3 2 2 2 2 2 2 2 2 2 1 1 0 0 0
7 7 7 7 7 7 7 7 6 6 6 6 6 6 6 6 5 5 5 5 5 5 4 4 4 4 4 4 4 4 4 4 4 4 4 4 4 4 4 4 3 3 3 3 3 3 3 3 3 3 3 3 2 2 2 2 2 2 2 2 2 2 1 1 1 1 0 -0 -0
7 7 7 7 7 7 6 6 6 6 6 6 6 6 5 5 5 5 5 5 4 4 4 4 4 4 4 4 4 4 4 4 4 4 4 4 3 3 3 3 3 3 3 3 3 3 3 3 2 2 2 2 2 2 2 2 2 2 2 1 1 1 1 1 1 0 0 -0 -0
7 7 7 7 6 6 6 6 6 6 6 6 5 5 5 5 5 5 4 4 4 4 4 4 4 4 4 4 4 4 4 4 3 3 3 3 3 3 3 3 3 3 3 3 3 3 2 2 2 2 2 2 2 2 2 2 1 1 1 1 1 1 0 0 0 0 -0 -0 -1
7 7 6 6 6 6 6 6 6 6 5 5 5 5 5 5 4 4 4 4 4 4 4 4 4 4 4 4 4 3 3 3 3 3 3 3 3 3 3 3 3 3 3 3 2 2 2 2 2 2 2 2 2 1 1 1 1 1 1 1 0 0 0 0 0 -0 -0 -1 -1
6 6 6 6 6 6 6 6 5 5 5 5 5 4 4 4 4 4 4 4 4 4 4 4 4 4 3 3 3 3 3 3 3 3 3 3 3 3 3 3 3 2 2 2 2 2 2 2 2 1 1 1 1 1 1 1 1 1 1 0 0 0 0 0 -0 -0 -1 -1 -1
6 6 6 6 6 5 5 5 5 5 5 4 4 4 4 4 4 4 4 4 4 4 3 3 3 3 3 3 3 3 3 3 3 3 3 3 3 3 2 2 2 2 2 2 2 2 2 1 1 1 1 1 1 1 1 1 0 0 0 0 0 -0 -0 -0 -0 -1 -1 -1 -2
6 6 5 5 5 5 5 5 5 4 4 4 4 4 4 4 4 4 3 3 3 3 3 3 3 3 3 3 3 3 3 3 3 3 3 2 2 2 2 2 2 2 2 2 2 1 1 1 1 1 1 1 1 0 0 0 0 -0 -0 -0 -0 -0 -0 -1 -1 -1 -1 -2 -2
5 5 5 5 5 5 5 5 4 4 4 4 4 4 4 4 3 3 3 3 3 3 3 3 3 3 3 3 3 3 3 3 2 2 2 2 2 2 2 2 2 2 1 1 1 1 1 1 1 1 0 0 0 -0 -0 -0 -0 -0 -0 -1 -1 -1 -1 -1 -1 -2 -2 -2 -3
5 5 5 5 5 5 4 4 4 4 4 4 4 3 3 3 3 3 3 3 3 3 3 3 3 3 3 3 3 3 2 2 2 2 2 2 2 2 2 2 1 1 1 1 1 1 0 0 0 0 -0 -0 -0 -0 -1 -1 -1 -1 -1 -1 -1 -1 -1 -1 -2 -2 -2 -3 -3
5 5 5 5 4 4 4 4 4 4 3 3 3 3 3 3 3 3 3 3 3 3 3 3 3 3 2 2 2 2 2 2 2 2 2 2 2 1 1 1 1 1 1 1 0 0 0 -0 -0 -0 -1 -1 -1 -1 -1 -1 -1 -1 -1 -1 -2 -2 -2 -2 -2 -3 -3 -4 -4
5 4 4 4 4 4 4 4 3 3 3 3 3 3 3 3 3 3 3 3 3 2 2 2 2 2 2 2 2 2 2 2 2 2 2 1 1 1 1 1 1 1 0 0 0 -0 -0 -1 -1 -1 -1 -1 -1 -1 -1 -2 -2 -2 -2 -2 -2 -2 -2 -3 -3 -3 -4 -4 -4
4 4 4 4 4 4 4 3 3 3 3 3 3 3 3 2 2 2 2 2 2 2 2 2 2 2 2 2 2 2 2 2 2 1 1 1 1 1 1 0 0 0 0 -0 -0 -1 -1 -1 -1 -1 -2 -2 -2 -2 -2 -2 -2 -2 -2 -3 -3 -3 -3 -3 -4 -4 -4 -5 -5
4 4 4 4 4 3 3 3 3 3 3 3 2 2 2 2 2 2 2 2 2 2 2 2 2 2 2 2 2 2 2 1 1 1 1 1 1 0 0 0 -0 -0 -0 -1 -1 -1 -1 -2 -2 -2 -2 -2 -2 -3 -3 -3 -3 -3 -3 -3 -4 -4 -4 -4 -4 -5 -5 -5 -5
4 4 4 4 3 3 3 3 3 3 2 2 2 2 2 2 2 2 2 2 2 2 2 2 2 2 2 2 2 1 1 1 1 1 1 1 0 0 -0 -0 -1 -1 -1 -1 -1 -2 -2 -2 -2 -2 -2 -3 -3 -3 -3 -4 -4 -4 -4 -4 -4 -5 -5 -5 -5 -5 -5 -6 -6
4 4 3 3 3 3 3 3 2 2 2 2 2 2 2 2 2 2 2 2 2 2 2 2 2 2 2 1 1 1 1 1 1 0 0 0 -0 -0 -1 -1 -1 -1 -1 -1 -2 -2 -2 -2 -2 -2 -3 -3 -4 -4 -4 -4 -4 -5 -5 -5 -5 -5 -5 -6 -6 -6 -6 -6 -6
3 3 3 3 3 3 2 2 2 2 2 2 2 2 2 2 2 2 2 2 2 2 2 2 2 1 1 1 1 1 1 0 0 0 -0 -0 -1 -1 -1 -1 -1 -2 -2 -2 -2 -2 -2 -2 -2 -2 -3 -3 -4 -5 -5 -5 -5 -5 -5 -6 -6 -6 -6 -6 -6 -6 -6 -6 -6
3 3 3 3 2 2 2 2 2 2 2 2 2 2 2 2 2 2 2 2 2 2 1 1 1 1 1 1 1 1 0 0 -0 -0 -1 -1 -1 -1 -1 -2 -2 -2 -2 -2 -2 -2 -2 -2 -2 -3 -3 -4 -5 -5 -5 -5 -5 -6 -6 -6 -6 -6 -6 -6 -6 -6 -6 -6 -6
3 3 3 2 2 2 2 2 2 2 2 2 2 2 2 2 1 1 1 1 1 1 1 1 1 1 1 1 0 0 -0 -0 -1 -1 -1 -1 -1 -2 -2 -2 -2 -2 -2 -2 -2 -2 -2 -2 -3 -3 -3 -4 -5 -5 -6 -6 -6 -6 -6 -6 -6 -6 -7 -7 -7 -7 -7 -7 -7
3 2 2 2 2 2 2 2 2 2 2 2 1 1 1 1 1 1 1 1 1 1 1 1 1 1 0 0 -0 -0 -0 -1 -1 -1 -1 -2 -2 -2 -2 -2 -2 -2 -2 -2 -2 -2 -3 -3 -3 -3 -4 -4 -5 -5 -6 -6 -6 -6 -6 -7 -7 -7 -7 -7 -7 -7 -7 -7 -7
2 2 2 2 2 1 1 1 1 1 1 1 1 1 1 1 1 1 1 1 1 1 1 1 0 0 0 -0 -0 -1 -1 -1 -1 -2 -2 -2 -2 -2 -2 -2 -2 -2 -2 -2 -3 -3 -3 -3 -4 -4 -4 -5 -5 -6 -6 -6 -6 -7 -7 -7 -7 -7 -7 -7 -7 -7 -7 -7 -7
2 2 2 1 1 1 1 1 1 1 1 1 1 1 1 1 1 1 1 1 1 1 0 0 0 -0 -0 -1 -1 -1 -1 -1 -2 -2 -2 -2 -2 -2 -2 -2 -2 -2 -2 -3 -3 -3 -3 -4 -4 -4 -5 -5 -6 -6 -6 -7 -7 -7 -7 -7 -7 -7 -7 -7 -7 -7 -7 -7 -7
2 2 1 1 1 1 1 1 1 1 1 1 1 1 1 1 1 1 1 1 0 0 0 -0 -0 -0 -1 -1 -1 -1 -2 -2 -2 -2 -2 -2 -2 -2 -2 -2 -2 -3 -3 -3 -3 -4 -4 -4 -4 -5 -5 -6 -6 -6 -7 -7 -7 -7 -7 -7 -7 -7 -7 -7 -7 -7 -7 -7 -7
1 1 1 1 1 1 1 1 1 1 1 1 1 1 1 1 1 1 0 0 0 0 -0 -0 -1 -1 -1 -1 -1 -2 -2 -2 -2 -2 -2 -2 -2 -2 -3 -3 -3 -3 -3 -3 -4 -4 -4 -5 -5 -5 -6 -6 -7 -7 -7 -7 -7 -7 -7 -7 -7 -7 -7 -7 -7 -7 -7 -7 -7
1 1 1 1 1 1 1 1 1 1 1 1 1 1 1 1 0 0 0 0 -0 -0 -0 -1 -1 -1 -1 -2 -2 -2 -2 -2 -2 -2 -3 -3 -3 -3 -3 -3 -3 -3 -3 -4 -4 -5 -5 -5 -5 -6 -6 -7 -7 -7 -7 -7 -7 -7 -7 -7 -7 -7 -7 -7 -7 -7 -7 -7 -7
1 1 1 1 1 1 1 1 1 1 1 1 1 1 0 0 0 0 -0 -0 -0 -1 -1 -1 -1 -1 -2 -2 -2 -2 -2 -2 -2 -3 -3 -3 -3 -3 -3 -3 -3 -3 -4 -4 -5 -5 -5 -5 -6 -6 -7 -7 -7 -7 -7 -7 -7 -7 -7 -7 -7 -7 -7 -7 -7 -7 -7 -7 -7
1 1 1 1 1 1 1 1 1 1 1 1 0 0 0 0 -0 -0 -0 -0 -1 -1 -1 -1 -1 -2 -2 -2 -2 -2 -3 -3 -3 -3 -3 -3 -3 -3 -3 -3 -4 -4 -4 -5 -5 -5 -6 -6 -6 -7 -7 -7 -7 -7 -7 -7 -7 -7 -7 -7 -7 -7 -7 -7 -7 -7 -7 -7 -7
1 1 1 1 1 1 1 1 1 0 0 0 0 0 0 -0 -0 -0 -1 -1 -1 -1 -1 -2 -2 -2 -2 -2 -2 -3 -3 -3 -3 -3 -3 -3 -3 -4 -4 -4 -4 -4 -5 -5 -5 -6 -6 -6 -7 -7 -8 -8 -7 -7 -7 -7 -7 -7 -7 -7 -7 -7 -7 -7 -7 -7 -7 -7 -6
1 1 1 1 1 1 1 0 0 0 0 0 0 -0 -0 -0 -1 -1 -1 -1 -1 -1 -2 -2 -2 -2 -2 -3 -3 -3 -3 -3 -3 -3 -3 -3 -4 -4 -4 -4 -5 -5 -5 -6 -6 -6 -7 -7 -7 -8 -8 -8 -8 -7 -7 -7 -8 -8 -8 -8 -7 -7 -7 -7 -7 -7 -7 -6 -7
1 1 1 1 1 0 0 0 0 0 0 -0 -0 -0 -0 -1 -1 -1 -1 -1 -2 -2 -2 -2 -2 -2 -3 -3 -3 -3 -3 -3 -3 -3 -3 -3 -4 -4 -4 -5 -5 -5 -6 -6 -6 -7 -7 -8 -8 -8 -8 -8 -8 -8 -8 -8 -8 -8 -8 -8 -7 -7 -7 -7 -7 -7 -7 -7 -7
1 1 1 1 0 0 0 0 0 -0 -0 -0 -0 -1 -1 -1 -1 -1 -1 -2 -2 -2 -2 -2 -3 -3 -3 -3 -3 -3 -3 -3 -3 -3 -3 -4 -4 -4 -5 -5 -6 -6 -6 -7 -7 -7 -8 -8 -8 -8 -8 -8 -8 -8 -8 -8 -8 -8 -8 -7 -7 -7 -7 -7 -7 -7 -7 -7 -7
Height
1497 1496 1496 1495 1495 1494 1494 1493 1493 1492 1491 1491 1490 1489 1488 1487 1486 1485 1485 1484 1483 1482 1481 1480 1479 1478 1477 1476 1475 1474 1473 1472 1471 1470 1469 1468 1467 1466 1465 1464 1463 1461 1460 1459 1458 1456 1455 1454 1452 1451 1450 1449 1447 1446 1445 1443 1442 1440 1439 1438 1436 1435 1433 1432 1430 1429 1428 1427 1425
1496 1496 1495 1495 1495 1494 1493 1493 1492 1492 1491 1490 1490 1489 1488 1487 1486 1485 1484 1483 1482 1481 1481 1480 1479 1478 1477 1475 1474 1473 1472 1471 1470 1469 1468 1467 1466 1465 1464 1463 1462 1460 1459 1458 1457 1455 1454 1453 1451 1450 1449 1447 1446 1445 1444 1442 1441 1439 1438 1436 1435 1433 1432 1430 1429 1428 1426 1425 1424
1496 1495 1495 1495 1494 1494 1493 1492 1492 1491 1490 1490 1489 1488 1487 1486 1485 1485 1484 1483 1482 1481 1480 1479 1478 1477 1476 1475 1474 1472 1471 1470 1470 1469 1468 1467 1465 1465 1463 1462 1461 1460 1459 1457 1456 1455 1453 1452 1450 1449 1448 1446 1445 1444 1442 1441 1439 1438 1436 1435 1433 1432 1430 1429 1427 1426 1425 1423 1422
1495 1495 1495 1494 1494 1493 1492 1491 1491 1490 1490 1489 1488 1487 1486 1486 1485 1484 1483 1482 1481 1480 1479 1478 1477 1476 1475 1474 1473 1472 1471 1470 1469 1468 1467 1466 1465 1464 1462 1461 1460 1459 1457 1456 1455 1454 1452 1451 1449 1448 1446 1445 1444 1442 1441 1439 1438 1436 1435 1433 1432 1430 1429 1427 1426 1424 1423 1421 1420
1495 1495 1494 1494 1493 1492 1491 1491 1490 1489 1489 1488 1487 1487 1486 1485 1484 1483 1482 1481 1480 1480 1478 1477 1476 1475 1475 1473 1472 1471 1470 1469 1468 1467 1466 1465 1464 1463 1461 1460 1459 1458 1456 1455 1454 1452 1451 1450 1448 1446 1445 1444 1442 1441 1439 1438 1436 1435 1433 1431 1430 1429 1427 1425 1424 1422 1421 1419 1417
1494 1494 1493 1493 1492 1491 1490 1490 1489 1489 1488 1487 1487 1486 1485 1484 1484 1483 1482 1481 1480 1479 1478 1477 1475 1475 1474 1473 1471 1470 1469 1468 1467 1466 1465 1464 1463 1462 1460 1459 1458 1457 1455 1454 1452 1451 1450 1448 1446 1445 1443 1442 1440 1439 1438 1436 1434 1433 1431 1430 1428 1427 1425 1423 1421 1420 1418 1417 1415
1494 1493 1493 1492 1491 1490 1490 1489 1489 1488 1487 1487 1486 1485 1485 1484 1483 1482 1481 1480 1479 1478 1477 1475 1475 1474 1473 1472 1470 1470 1468 1467 1466 1465 1464 1463 1462 1460 1459 1458 1457 1455 1454 1452 1451 1449 1448 1446 1445 1443 1441 1440 1439 1437 1436 1434 1433 1431 1429 1427 1426 1425 1423 1421 1420 1418 1416 1415 1413
1493 1493 1492 1491 1490 1490 1489 1489 1488 1487 1487 1486 1485 1485 1484 1483 1482 1481 1480 1479 1478 1477 1475 1475 1474 1473 1472 1470 1470 1468 1467 1466 1465 1464 1463 1462 1460 1459 1458 1457 1455 1454 1452 1451 1450 1448 1446 1445 1443 1441 1440 1438 1437 1435 1434 1432 1431 1429 1427 1425 1424 1422 1421 1419 1418 1416 1414 1412 1411
1493 1492 1491 1490 1490 1489 1489 1488 1487 1487 1486 1485 1484 1483 1483 1482 1481 1480 1479 1478 1477 1476 1475 1474 1473 1472 1471 1470 1469 1467 1466 1465 1464 1463 1461 1460 1459 1458 1456 1455 1454 1452 1451 1450 1448 1446 1445 1443 1442 1440 1438 1437 1435 1434 1432 1430 1429 1427 1425 1424 1422 1420 1419 1417 1416 1414 1412 1410 1409
1492 1491 1490 1490 1489 1489 1488 1487 1486 1486 1485 1484 1483 1482 1482 1481 1480 1479 1478 1477 1476 1475 1474 1473 1472 1471 1470 1469 1467 1466 1465 1464 1463 1461 1460 1459 1458 1456 1455 1454 1452 1451 1449 1448 1446 1445 1443 1442 1440 1439 1437 1435 1434 1432 1430 1428 1427 1425 1423 1422 1420 1419 1417 1415 1414 1412 1410 1409 1407
1491 1490 1490 1489 1488 1488 1487 1486 1486 1485 1484 1483 1482 1481 1480 1480 1479 1478 1477 1476 1475 1474 1473 1472 1471 1470 1469 1467 1466 1465 1464 1463 1461 1460 1459 1457 1456 1455 1454 1452 1451 1449 1448 1446 1445 1443 1442 1440 1439 1437 1435 1434 1432 1430 1428 1426 1425 1423 1422 1420 1418 1416 1415 1413 1412 1410 1409 1406 1405
1490 1490 1489 1488 1488 1487 1486 1486 1485 1484 1483 1482 1481 1480 1480 1479 1478 1477 1476 1475 1474 1473 1472 1471 1470 1469 1467 1466 1465 1464 1463 1461 1460 1459 1458 1456 1455 1454 1452 1451 1450 1448 1446 1445 1444 1442 1440 1438 1437 1435 1434 1432 1430 1429 1427 1425 1423 1421 1419 1418 1416 1414 1413 1411 1410 1408 1406 1404 1402
1490 1489 1488 1488 1487 1486 1486 1485 1484 1484 1483 1482 1481 1480 1479 1478 1477 1476 1475 1474 1473 1472 1471 1470 1469 1467 1466 1465 1464 1463 1461 1460 1459 1458 1456 1455 1454 1452 1451 1450 1448 1447 1445 1444 1442 1440 1439 1437 1435 1433 1432 1430 1428 1426 1425 1423 1421 1419 1417 1415 1414 1412 1410 1409 1407 1405 1404 1402 1400
1489 1488 1488 1487 1486 1485 1485 1484 1483 1483 1482 1481 1480 1479 1478 1477 1476 1475 1474 1473 1472 1471 1470 1469 1468 1466 1465 1464 1463 1462 1460 1459 1458 1456 1455 1454 1452 1451 1450 1448 1447 1445 1444 1442 1440 1439 1437 1435 1433 1431 1430 1428 1426 1425 1423 1421 1419 1417 1415 1413 1412 1410 1408 1407 1405 1403 1402 1400 1398
1488 1487 1487 1486 1485 1485 1484 1483 1482 1482 1481 1480 1479 1478 1477 1476 1475 1474 1473 1472 1471 1470 1469 1468 1466 1465 1464 1463 1462 1460 1459 1458 1457 1455 1454 1452 1451 1450 1448 1447 1445 1444 1442 1440 1439 1437 1435 1434 1432 1430 1428 1426 1424 1422 1421 1419 1417 1415 1414 1412 1410 1408 1406 1405 1403 1401 1400 1398 1396
1487 1487 1486 1485 1485 1484 1483 1482 1481 1480 1480 1479 1478 1476 1475 1475 1474 1473 1471 1470 1470 1469 1468 1467 1465 1464 1463 1462 1461 1460 1458 1457 1455 1454 1452 1451 1450 1448 1447 1445 1444 1442 1440 1439 1437 1435 1434 1432 1430 1428 1426 1424 1422 1420 1419 1417 1415 1413 1412 1410 1408 1407 1405 1403 1401 1400 1398 1396 1395
1486 1486 1485 1484 1483 1483 1482 1481 1480 1479 1478 1477 1476 1475 1475 1473 1472 1471 1470 1470 1468 1467 1467 1465 1465 1463 1462 1461 1460 1458 1457 1455 1454 1453 1451 1450 1448 1446 1445 1443 1442 1440 1439 1437 1435 1434 1432 1430 1428 1426 1425 1422 1420 1418 1417 1415 1413 1411 1410 1408 1407 1405 1403 1402 1400 1398 1396 1394 1392
1485 1485 1484 1483 1482 1481 1481 1480 1479 1478 1477 1476 1475 1474 1473 1472 1471 1470 1469 1468 1467 1466 1465 1464 1463 1462 1461 1460 1458 1457 1455 1454 1452 1451 1450 1448 1446 1445 1443 1442 1440 1439 1437 1435 1434 1432 1430 1428 1426 1424 1422 1420 1419 1417 1415 1413 1411 1410 1408 1406 1405 1403 1401 1400 1398 1396 1394 1392 1390
1485 1484 1483 1482 1481 1480 1480 1479 1478 1477 1476 1475 1474 1473 1472 1471 1470 1469 1468 1467 1466 1465 1464 1463 1462 1461 1460 1458 1457 1455 1454 1453 1451 1450 1448 1447 1445 1443 1442 1440 1439 1437 1435 1434 1432 1430 1428 1426 1424 1422 1420 1419 1416 1415 1413 1411 1410 1408 1406 1404 1402 1401 1399 1397 1395 1394 1392 1390 1388
1484 1483 1482 1481 1480 1480 1479 1478 1477 1476 1475 1474 1473 1472 1471 1470 1469 1468 1467 1466 1465 1464 1463 1462 1460 1459 1458 1457 1455 1454 1453 1451 1450 1448 1446 1445 1444 1442 1440 1438 1437 1435 1434 1432 1430 1428 1426 1424 1422 1420 1418 1416 1415 1413 1411 1409 1407 1405 1404 1402 1400 1398 1396 1395 1393 1391 1390 1388 1386
1482 1482 1481 1480 1480 1479 1478 1477 1476 1475 1474 1473 1472 1471 1470 1469 1468 1467 1466 1465 1464 1463 1461 1460 1459 1458 1456 1455 1454 1453 1451 1450 1448 1447 1445 1443 1442 1440 1439 1437 1435 1433 1432 1430 1428 1426 1424 1422 1420 1418 1416 1414 1412 1410 1408 1406 1405 1403 1401 1399 1398 1396 1394 1392 1390 1389 1387 1385 1384
1481 1480 1480 1479 1478 1478 1477 1476 1475 1474 1473 1472 1471 1470 1469 1468 1467 1466 1465 1463 1462 1461 1460 1459 1458 1456 1455 1454 1452 1451 1450 1448 1447 1445 1444 1442 1440 1439 1437 1435 1434 1432 1430 1428 1426 1424 1422 1420 1418 1416 1415 1412 1410 1408 1406 1404 1402 1400 1398 1396 1395 1393 1391 1390 1388 1386 1385 1384 1382
1480 1479 1479 1478 1477 1476 1476 1475 1474 1473 1472 1471 1470 1469 1468 1466 1465 1464 1463 1462 1461 1460 1459 1457 1456 1455 1454 1452 1451 1450 1448 1446 1445 1444 1443 1441 1439 1437 1435 1434 1432 1430 1428 1427 1425 1423 1420 1418 1416 1414 1412 1410 1408 1406 1404 1402 1400 1398 1396 1394 1392 1390 1389 1387 1386 1384 1383 1381 1380
1479 1478 1478 1477 1476 1475 1475 1474 1473 1472 1470 1470 1469 1467 1466 1465 1464 1463 1462 1461 1460 1459 1457 1456 1455 1454 1452 1451 1450 1448 1446 1445 1443 1442 1440 1439 1438 1436 1434 1432 1430 1429 1427 1425 1423 1421 1419 1417 1414 1412 1410 1408 1406 1404 1402 1400 1398 1396 1394 1392 1390 1388 1386 1385 1384 1382 1381 1379 1378
1478 1477 1477 1476 1475 1474 1473 1472 1471 1470 1469 1468 1467 1466 1465 1464 1463 1462 1460 1460 1458 1457 1456 1455 1453 1452 1451 1450 1448 1447 1445 1444 1442 1440 1439 1437 1435 1434 1432 1430 1429 1427 1425 1423 1421 1420 1418 1416 1414 1411 1409 1406 1404 1402 1400 1398 1396 1394 1392 1390 1388 1386 1384 1382 1381 1380 1379 1377 1375
1477 1476 1475 1475 1474 1473 1472 1471 1470 1469 1468 1467 1466 1465 1464 1462 1461 1460 1459 1458 1457 1456 1455 1453 1452 1451 1449 1448 1447 1445 1444 1442 1440 1439 1437 1435 1433 1432 1430 1428 1427 1425 1423 1421 1419 1418 1416 1414 1412 1410 1408 1405 1403 1400 1398 1395 1394 1392 1390 1388 1386 1384 1382 1380 1379 1377 1376 1375 1374
1476 1475 1475 1474 1473 1472 1471 1470 1469 1468 1467 1465 1465 1463 1462 1461 1460 1459 1458 1457 1455 1454 1453 1452 1450 1449 1448 1446 1445 1444 1442 1440 1439 1437 1435 1433 1432 1430 1428 1426 1425 1423 1421 1419 1417 1415 1414 1412 1410 1408 1406 1404 1401 1399 1396 1394 1392 1390 1388 1386 1385 1383 1381 1379 1377 1375 1374 1372 1371
1475 1475 1474 1473 1472 1470 1470 1469 1467 1466 1465 1464 1463 1462 1461 1460 1459 1457 1456 1455 1454 1453 1452 1450 1449 1448 1446 1445 1443 1442 1440 1439 1437 1435 1433 1432 1430 1428 1426 1424 1423 1421 1419 1417 1415 1413 1411 1410 1408 1406 1404 1402 1400 1397 1395 1393 1390 1388 1386 1385 1383 1381 1380 1378 1376 1374 1372 1370 1369
1474 1473 1472 1471 1470 1469 1468 1467 1466 1465 1464 1463 1462 1461 1460 1459 1457 1456 1455 1454 1453 1451 1450 1449 1447 1446 1445 1443 1441 1440 1439 1437 1435 1434 1431 1430 1428 1426 1424 1422 1420 1419 1417 1415 1413 1411 1409 1407 1405 1404 1402 1400 1398 1395 1393 1391 1389 1387 1385 1383 1381 1380 1378 1376 1375 1373 1371 1369 1367
1473 1472 1471 1470 1469 1468 1467 1466 1465 1464 1463 1462 1460 1460 1458 1457 1456 1455 1454 1452 1451 1450 1449 1447 1446 1445 1443 1441 1440 1438 1436 1435 1433 1432 1430 1428 1425 1424 1422 1420 1418 1416 1415 1413 1410 1409 1407 1405 1403 1401 1400 1398 1396 1394 1392 1390 1387 1385 1383 1381 1380 1378 1377 1375 1373 1371 1370 1368 1366
1472 1471 1470 1469 1468 1467 1465 1465 1464 1462 1461 1460 1459 1458 1457 1456 1455 1453 1452 1451 1450 1449 1447 1446 1445 1443 1441 1440 1438 1436 1435 1433 1431 1430 1428 1425 1423 1421 1420 1418 1416 1414 1412 1410 1408 1406 1405 1403 1401 1399 1397 1395 1394 1392 1390 1388 1386 1384 1382 1380 1378 1376 1375 1373 1371 1370 1368 1366 1364
1470 1470 1468 1467 1466 1465 1464 1463 1462 1461 1460 1459 1458 1457 1455 1455 1453 1452 1451 1450 1448 1447 1445 1444 1443 1441 1440 1438 1436 1435 1433 1431 1429 1427 1425 1424 1421 1419 1417 1415 1414 1412 1410 1408 1406 1404 1402 1400 1399 1397 1395 1393 1391 1390 1388 1386 1384 1382 1380 1378 1377 1375 1374 1372 1370 1368 1366 1365 1363
1469 1468 1467 1466 1465 1464 1463 1462 1461 1460 1459 1458 1457 1455 1454 1453 1452 1451 1450 1448 1447 1445 1444 1442 1441 1439 1437 1435 1434 1432 1430 1429 1427 1426 1424 1421 1419 1417 1415 1413 1411 1410 1408 1406 1404 1402 1400 1399 1397 1395 1393 1391 1389 1387 1385 1384 1382 1380 1378 1376 1375 1374 1372 1370 1369 1366 1365 1363 1361
1467 1466 1465 1465 1464 1463 1462 1461 1460 1459 1458 1456 1455 1454 1453 1452 1451 1449 1448 1447 1445 1444 1442 1441 1439 1438 1436 1434 1432 1430 1429 1427 1425 1424 1422 1419 1417 1415 1413 1411 1410 1408 1406 1404 1402 1400 1399 1397 1395 1393 1391 1389 1387 1385 1384 1382 1380 1378 1377 1375 1373 1372 1370 1369 1367 1365 1363 1361 1360
1466 1465 1464 1463 1462 1461 1460 1459 1458 1457 1456 1455 1454 1453 1452 1451 1450 1448 1446 1445 1444 1442 1441 1439 1438 1436 1434 1433 1431 1429 1427 1425 1423 1421 1420 1417 1415 1413 1411 1409 1408 1406 1405 1402 1400 1398 1396 1395 1393 1391 1389 1387 1385 1384 1382 1380 1379 1377 1375 1373 1372 1370 1368 1366 1365 1363 1361 1359 1358
1465 1464 1463 1462 1461 1460 1459 1458 1457 1456 1455 1454 1453 1451 1450 1449 1448 1447 1445 1443 1442 1440 1439 1437 1435 1434 1432 1430 1429 1427 1425 1423 1421 1419 1417 1415 1413 1411 1409 1407 1405 1404 1402 1400 1398 1396 1395 1393 1391 1389 1387 1385 1384 1382 1381 1379 1377 1375 1373 1371 1370 1368 1366 1364 1362 1360 1359 1358 1356
1463 1462 1461 1460 1460 1459 1458 1456 1455 1454 1453 1452 1451 1450 1449 1448 1446 1445 1443 1442 1440 1438 1436 1435 1434 1432 1430 1428 1426 1425 1423 1422 1420 1417 1415 1413 1411 1409 1407 1405 1403 1401 1400 1398 1396 1395 1393 1391 1389 1387 1386 1384 1383 1381 1379 1377 1375 1374 1372 1370 1368 1366 1364 1362 1360 1359 1357 1356 1355
1462 1461 1460 1459 1458 1457 1456 1455 1454 1453 1452 1451 1450 1449 1448 1446 1445 1443 1442 1440 1438 1436 1434 1433 1431 1430 1428 1426 1425 1423 1421 1420 1418 1416 1414 1411 1410 1408 1405 1403 1401 1399 1398 1396 1395 1393 1391 1389 1387 1386 1385 1384 1382 1380 1378 1376 1374 1372 1370 1368 1366 1364 1362 1360 1359 1357 1355 1354 1353
1460 1460 1459 1458 1457 1455 1455 1454 1453 1452 1450 1450 1448 1447 1446 1445 1443 1441 1440 1438 1437 1435 1433 1431 1430 1428 1426 1425 1422 1420 1419 1418 1416 1415 1412 1410 1408 1406 1404 1401 1399 1397 1396 1394 1392 1390 1389 1387 1386 1385 1384 1383 1381 1379 1377 1375 1373 1370 1369 1366 1364 1362 1360 1359 1357 1355 1354 1352 1351
1459 1458 1457 1456 1455 1454 1453 1452 1451 1450 1450 1448 1447 1445 1444 1443 1441 1440 1438 1437 1435 1433 1431 1430 1428 1426 1425 1423 1421 1419 1417 1415 1414 1413 1410 1408 1406 1404 1402 1400 1397 1395 1394 1392 1390 1389 1387 1386 1385 1384 1383 1381 1380 1378 1376 1374 1371 1369 1367 1365 1363 1361 1359 1357 1355 1354 1352 1350 1349
1458 1457 1456 1455 1454 1453 1452 1451 1450 1449 1448 1447 1446 1444 1443 1441 1440 1438 1437 1435 1433 1432 1430 1428 1426 1425 1423 1421 1419 1417 1415 1413 1412 1410 1409 1406 1404 1402 1400 1398 1396 1393 1391 1390 1389 1387 1386 1385 1384 1383 1382 1380 1378 1377 1375 1372 1370 1368 1365 1364 1362 1360 1357 1355 1353 1352 1350 1348 1346
Wind_Speed
18 19 20 21 22 23 24 25 26 27 27 27 27 27 27 26 26 26 27 27 27 27 27 27 27 27 27 26 26 26 25 24 24 24 24 24 24 24 25 25 25 26 27 27 28 28 29 29 30 31 31 31 32 32 32 33 33 34 34 34 35 35 35 35 34 34 34 33 31
18 18 19 20 21 22 23 24 25 25 25 25 25 25 25 25 25 25 26 26 26 26 26 26 26 26 26 25 25 24 24 24 23 23 23 23 24 24 25 25 26 26 27 28 28 29 30 30 31 31 32 32 32 32 33 33 34 34 35 35 35 36 36 36 35 35 35 34 33
17 18 19 20 21 22 23 23 24 24 24 24 24 24 24 24 24 24 25 25 25 25 25 25 25 25 24 24 23 23 23 23 23 23 23 23 24 24 25 26 26 27 28 28 29 30 30 31 31 32 32 32 33 33 33 34 34 35 35 36 36 36 36 36 36 36 36 35 35
18 19 19 20 21 22 22 23 23 23 23 23 23 23 23 23 23 23 24 24 24 24 24 24 24 23 23 22 22 22 22 22 22 23 23 24 24 25 26 26 27 28 28 29 29 30 31 31 32 32 32 33 33 34 34 34 35 35 36 36 37 37 37 37 37 37 37 37 36
19 19 20 20 21 21 22 22 22 22 22 22 22 22 22 22 22 23 23 23 23 23 23 23 22 22 22 21 21 21 21 22 22 23 23 24 25 25 26 27 27 28 29 29 30 31 31 32 32 33 33 34 34 34 35 35 36 36 37 37 37 38 38 38 38 38 38 38 37
19 20 20 21 21 21 21 21 21 21 21 21 21 21 21 21 22 22 22 22 22 22 22 21 21 21 21 21 21 21 21 22 23 23 24 25 25 26 27 27 28 29 29 30 31 31 32 32 33 34 34 35 35 35 36 36 37 37 38 38 38 39 39 39 39 39 39 39 38
20 20 20 20 20 20 21 21 21 21 20 20 20 20 21 21 22 22 22 22 22 21 21 21 20 20 21 21 21 21 22 23 23 24 25 25 26 27 27 28 29 30 30 31 32 32 33 33 34 35 35 36 36 37 37 37 38 38 39 39 40 40 40 40 40 40 40 39 39
19 20 20 20 20 20 20 20 20 20 20 20 20 20 21 21 21 22 22 21 21 21 20 20 20 20 21 21 22 22 23 23 24 25 25 26 27 28 28 29 30 31 31 32 33 33 34 35 35 36 36 37 37 38 38 38 39 39 40 40 41 41 41 41 41 41 40 40 40
19 19 19 19 19 20 20 19 19 19 19 20 20 20 21 21 21 21 21 21 21 20 20 20 20 21 21 22 22 23 24 24 25 26 26 27 28 29 29 30 31 32 32 33 34 34 35 36 36 37 37 38 38 39 39 39 40 40 41 41 41 41 41 41 41 41 41 40 40
19 19 19 19 19 19 19 19 19 19 20 20 20 21 21 21 21 21 21 21 21 20 20 21 21 21 22 22 23 24 24 25 26 26 27 28 29 30 30 31 32 33 33 34 34 35 36 36 37 37 38 38 39 39 40 40 40 41 41 41 41 41 42 41 41 41 41 40 40
19 19 19 19 19 19 19 19 19 20 20 20 21 21 21 21 21 21 21 20 20 20 20 21 22 22 23 23 24 24 25 26 26 27 28 29 30 30 31 32 33 33 34 35 35 36 37 37 37 38 38 39 39 40 40 41 41 41 41 41 42 42 42 42 41 41 40 40 41
19 19 19 19 19 19 19 19 19 20 20 20 21 21 21 21 21 20 20 20 20 21 21 22 22 23 23 24 24 25 26 26 27 28 29 30 30 31 32 33 33 34 35 35 36 37 37 38 38 39 39 40 40 40 41 41 41 41 42 42 42 42 42 42 42 41 41 41 41
19 19 19 19 19 19 19 19 19 19 20 20 20 20 20 20 20 20 20 20 21 21 22 22 23 23 24 25 25 26 26 27 28 29 29 30 31 32 33 33 34 35 35 36 36 37 38 38 39 39 40 40 41 41 41 41 42 42 42 42 42 42 42 42 42 42 42 42 42
19 19 19 19 18 18 18 18 19 19 19 19 20 20 20 20 20 20 21 21 21 22 22 23 23 24 24 25 26 26 27 28 28 29 30 31 32 33 33 34 35 35 36 37 37 38 38 39 40 40 40 41 41 41 41 42 42 42 42 42 42 42 42 42 42 42 42 42 42
18 18 18 18 18 18 18 18 18 18 18 19 19 19 20 20 20 21 21 21 22 22 23 23 24 24 25 25 26 27 27 28 29 30 31 32 33 33 34 35 36 36 37 37 38 38 39 39 40 40 41 41 42 42 42 42 42 42 42 42 42 42 42 42 42 42 42 41 42
18 18 18 17 17 17 17 17 17 18 18 18 19 19 20 20 21 21 22 22 22 23 23 23 24 24 25 25 26 27 28 29 30 31 32 33 34 34 35 36 37 37 38 38 39 39 39 40 40 41 41 42 42 42 42 42 42 42 42 42 41 42 42 42 42 42 41 41 41
18 18 17 17 17 17 17 17 17 17 18 18 19 19 20 20 21 22 22 23 23 23 23 24 24 25 25 26 27 28 29 30 31 32 33 34 35 35 36 37 37 38 38 39 40 40 40 40 41 41 41 41 42 42 42 42 42 42 41 41 41 41 41 41 41 41 41 41 40
18 18 17 17 17 17 17 17 17 17 17 18 19 19 20 21 22 22 23 23 23 23 24 24 24 25 26 27 28 29 30 31 32 33 33 34 35 36 37 37 38 38 39 40 40 40 41 41 41 41 41 41 41 42 42 41 41 41 41 41 41 41 41 41 41 40 40 40 40
18 18 18 17 17 17 17 17 17 17 17 18 19 20 21 21 22 22 23 23 23 23 24 24 25 26 26 27 28 29 30 31 32 33 34 35 36 37 37 38 39 39 40 40 40 41 41 41 41 41 41 41 41 41 41 41 41 41 41 41 41 41 41 41 41 40 40 40 39
18 18 18 17 17 17 17 16 16 17 17 18 19 20 21 22 22 23 23 23 23 24 24 25 25 26 27 28 29 30 31 32 33 34 35 36 37 37 38 39 39 40 40 40 40 41 41 41 41 41 41 41 41 41 41 41 41 41 41 41 41 41 41 41 41 41 40 39 39
18 18 18 17 17 17 16 16 16 17 17 18 19 20 21 22 22 23 23 23 24 24 25 25 26 27 28 29 30 31 32 33 34 35 36 37 37 38 38 39 40 40 40 40 40 40 40 40 40 40 41 41 41 41 41 41 41 41 41 41 42 42 42 41 41 40 40 39 38
18 18 17 17 17 16 16 16 16 17 18 19 20 21 22 22 22 23 23 23 24 24 25 26 27 28 29 30 31 32 33 34 34 35 36 37 38 38 39 39 40 40 40 40 40 40 40 40 40 40 40 40 41 41 41 41 41 41 42 42 42 42 41 41 41 40 39 38 36
18 18 17 17 16 16 15 16 16 17 18 20 21 22 22 22 22 23 23 23 24 25 26 27 28 29 30 31 32 33 34 35 35 36 37 37 38 39 39 39 40 40 40 40 40 39 39 40 40 40 40 40 40 40 40 40 41 41 41 41 41 41 41 40 40 39 38 36 35
18 17 17 16 15 15 15 16 17 18 19 21 21 22 22 22 22 23 23 24 24 25 26 27 28 29 30 31 32 34 35 35 36 37 37 38 38 39 39 39 40 39 39 39 39 39 38 38 39 39 39 39 39 39 39 39 40 40 40 40 41 41 40 40 39 37 36 35 34
17 16 16 15 15 15 16 17 18 19 20 21 22 22 22 22 22 23 23 24 25 26 27 28 29 30 31 32 33 34 35 36 37 38 38 39 39 39 39 39 39 39 39 39 38 38 38 37 38 38 38 38 38 38 38 38 38 39 39 39 39 39 39 38 37 36 35 34 33
16 15 15 14 15 16 17 18 19 20 21 21 21 22 22 22 22 23 24 25 26 27 28 29 30 31 32 33 34 35 36 36 37 38 39 39 39 39 39 39 39 39 39 39 38 38 38 38 37 37 37 36 36 36 37 37 37 37 37 37 37 37 36 36 36 35 34 33 33
14 14 14 15 16 17 18 19 20 21 21 21 21 21 22 22 23 24 25 26 27 28 29 30 31 32 33 34 35 36 36 37 38 38 39 39 39 39 39 39 39 39 39 39 39 39 39 39 38 37 36 35 34 34 35 36 36 36 35 35 35 34 34 34 35 35 34 34 34
13 13 14 16 17 18 19 20 20 21 21 21 21 21 22 23 24 25 26 27 28 29 30 31 32 33 34 35 36 36 37 38 38 39 39 39 39 39 39 39 39 39 39 39 39 39 39 39 39 38 36 34 33 32 33 34 34 34 33 33 33 33 33 33 33 33 33 34 34
14 14 16 17 18 19 20 20 20 20 21 21 21 21 22 23 24 26 27 28 29 30 31 32 33 34 35 36 37 37 38 38 38 39 39 39 39 39 39 39 39 39 39 39 40 40 40 39 39 37 36 33 32 31 31 32 32 32 32 31 32 32 32 33 33 33 33 34 34
15 16 17 19 19 20 20 20 20 20 20 21 21 22 23 24 25 27 28 29 30 31 32 33 34 35 36 36 37 38 38 38 39 39 39 39 39 39 39 39 40 40 40 40 40 40 40 39 38 37 35 33 31 30 30 30 31 31 31 32 31 32 32 33 33 34 34 34 35
17 18 19 20 20 19 19 19 19 20 20 21 22 23 24 25 26 28 29 30 31 32 33 34 35 35 36 37 37 38 38 39 39 39 39 39 39 40 40 40 40 41 41 41 40 40 39 39 37 36 34 32 30 30 30 30 31 31 31 31 31 31 32 33 33 33 34 35 35
19 19 20 19 19 19 19 19 19 20 21 22 23 24 25 26 27 28 29 31 32 33 34 34 35 36 37 38 38 38 39 39 39 39 39 39 40 40 40 41 41 41 41 41 40 40 39 38 36 35 33 31 30 29 30 30 30 30 30 30 30 31 31 32 32 34 35 35 35
20 20 19 19 18 18 18 19 19 20 21 22 23 25 26 27 28 29 30 31 32 33 34 35 36 37 38 38 39 39 39 39 39 39 39 39 40 41 41 41 41 41 41 41 40 39 38 37 35 34 32 30 30 30 30 30 30 29 29 30 30 30 30 31 33 34 34 34 34
19 19 18 18 18 18 18 19 20 21 22 23 24 25 26 27 29 30 31 32 33 34 35 35 36 37 38 38 38 39 39 39 39 39 39 40 40 41 41 41 42 41 41 41 39 38 37 35 34 33 31 30 29 30 30 30 29 29 29 29 29 29 30 31 32 33 33 33 34
18 18 17 17 17 18 19 20 21 22 23 24 25 26 27 28 29 30 32 33 34 35 35 36 37 37 38 38 38 38 39 39 39 39 40 40 41 41 42 42 42 42 41 40 39 37 36 34 33 31 30 29 29 29 29 29 29 29 29 29 29 30 30 31 32 32 33 33 33
17 17 17 17 18 19 20 21 22 23 24 25 26 27 28 29 30 31 32 33 35 35 36 37 37 38 38 38 38 38 39 39 40 40 40 40 41 41 42 42 42 42 41 39 38 36 34 33 32 31 29 29 29 29 29 29 29 29 29 29 30 30 30 31 32 32 33 32 32
16 16 17 17 18 19 21 22 23 24 25 26 27 28 29 30 31 32 33 34 35 36 37 37 38 38 38 39 39 39 39 39 39 40 40 40 41 41 42 43 42 41 40 38 36 35 34 33 31 30 29 29 29 29 29 29 29 29 29 29 30 30 30 31 31 32 31 31 30
16 16 17 18 19 20 21 22 23 25 25 26 27 29 30 31 32 33 33 34 36 37 38 38 38 38 38 39 39 39 39 39 39 40 40 41 41 41 42 42 42 41 39 37 35 34 33 32 30 29 28 28 29 29 29 29 29 29 29 30 30 30 30 31 31 31 30 29 28
16 17 18 19 20 21 22 23 24 25 26 27 28 29 30 31 32 33 34 35 36 37 38 38 38 38 38 39 39 40 40 39 39 39 40 41 41 41 41 41 41 40 38 36 34 33 32 31 29 28 27 28 29 29 29 29 29 29 29 29 30 30 30 31 31 31 29 29 30
16 18 19 20 21 22 23 24 25 26 27 28 29 30 31 32 33 34 34 35 36 37 37 38 38 38 38 39 39 40 40 40 40 40 40 40 41 41 40 40 40 38 37 35 34 33 32 30 28 27 27 27 28 29 29 29 29 29 29 29 30 31 31 32 32 30 29 30 34
17 18 20 21 22 23 24 25 26 26 27 28 29 31 32 33 33 34 35 36 36 36 37 38 38 38 38 38 39 40 40 40 40 40 40 41 41 41 40 39 38 37 35 33 33 32 30 28 27 27 27 27 28 28 28 29 29 29 30 30 30 31 32 33 32 30 30 33 39
Wind_Direction
10 8 6 5 3 1 359 356 353 350 348 346 345 346 346 347 347 347 347 347 347 346 346 345 344 344 344 344 345 346 347 348 348 349 349 350 350 350 350 350 350 349 349 348 348 348 347 347 347 346 346 346 346 345 345 345 343 342 341 340 340 339 338 338 337 337 336 335 333
8 6 5 3 1 359 357 355 352 349 347 346 345 346 346 347 347 346 346 346 346 345 344 343 343 343 343 344 344 345 346 347 348 348 348 349 348 348 348 348 348 348 348 347 347 347 346 346 346 345 345 345 344 344 343 343 342 340 339 339 338 338 337 336 336 335 334 333 333
8 6 4 2 1 359 357 355 353 350 348 347 346 346 346 346 345 345 345 344 344 343 342 342 342 342 343 344 344 345 346 347 347 347 347 347 347 347 347 347 347 347 347 347 346 346 346 345 345 345 344 344 343 342 342 341 340 339 338 338 337 336 336 335 334 334 333 332 332
9 7 5 3 1 359 358 356 354 352 350 348 347 346 345 344 344 343 342 342 341 341 341 341 341 342 343 344 344 345 346 346 346 346 346 346 346 346 346 346 346 346 346 346 345 345 345 344 344 343 343 342 342 342 341 340 339 338 337 336 336 335 335 334 333 333 332 331 331
9 7 5 3 2 0 359 358 356 353 351 349 347 345 344 343 342 341 340 340 340 340 341 341 342 342 343 344 344 345 345 345 345 345 345 346 346 346 346 346 346 346 345 345 345 344 344 343 343 343 342 342 341 341 340 339 338 337 336 335 335 335 334 333 333 332 332 331 331
10 8 5 3 2 1 360 358 356 354 351 348 346 344 342 341 340 340 339 340 340 341 341 342 342 343 343 344 344 344 345 345 345 345 345 345 345 346 346 346 346 345 345 345 344 344 343 343 342 342 341 341 340 340 339 338 337 336 335 335 334 334 333 333 332 332 332 332 331
10 8 6 4 3 2 360 357 355 353 350 347 344 342 341 340 340 340 340 340 341 342 343 343 343 343 344 344 344 345 345 345 345 345 345 345 345 345 345 345 345 345 345 344 344 343 343 342 342 341 341 340 339 339 338 337 336 335 335 334 334 333 333 333 332 332 332 331 331
9 7 6 4 3 1 359 356 354 351 348 345 344 342 341 341 340 341 341 342 343 343 344 344 344 344 344 344 344 344 344 345 345 345 345 345 345 345 345 345 345 344 344 344 343 343 342 342 341 341 340 339 338 337 337 336 335 334 334 333 333 332 332 332 332 332 331 331 331
9 7 5 4 2 360 358 355 353 350 348 345 344 343 342 342 342 342 343 344 344 344 344 344 344 344 344 344 344 344 345 345 345 345 345 345 345 345 344 344 344 344 343 343 343 342 341 341 340 340 339 338 337 336 335 335 334 333 332 332 332 331 331 331 331 331 330 330 330
8 6 5 3 1 359 356 354 352 349 347 345 344 343 343 343 343 344 344 345 344 344 344 343 344 344 344 344 344 345 345 345 345 345 345 345 345 344 344 344 344 343 343 342 342 341 340 340 339 338 337 336 336 335 334 333 333 332 331 331 330 330 330 330 330 330 330 329 328
7 6 5 2 360 357 355 352 350 348 347 345 344 344 344 344 344 345 345 345 344 343 343 343 343 344 344 344 344 345 345 345 345 345 345 344 344 344 344 343 343 342 342 341 341 340 339 339 338 337 336 335 334 334 333 332 331 331 330 330 329 329 329 329 330 330 329 328 328
6 5 3 1 358 355 353 350 348 347 345 344 344 344 344 344 345 345 344 344 343 343 343 343 344 344 344 344 344 345 345 345 345 344 344 344 343 343 343 343 342 342 341 341 340 339 338 337 336 335 334 334 333 333 332 331 330 330 329 329 329 329 329 329 329 329 329 328 328
5 4 1 358 355 353 350 348 346 344 343 343 343 344 344 344 344 344 344 343 343 343 343 343 344 344 344 344 344 344 344 344 344 344 343 343 343 342 342 342 341 341 340 340 339 338 337 336 335 334 333 333 332 331 331 330 330 329 329 329 329 330 330 329 329 329 328 328 328
3 1 358 355 352 350 348 345 343 342 341 342 343 344 344 344 344 344 343 343 343 343 343 343 343 344 344 343 343 344 344 343 343 343 343 342 342 341 341 341 340 340 339 339 338 337 336 335 334 334 333 332 331 330 330 330 329 329 329 330 330 330 329 329 329 328 328 327 327
360 357 354 351 349 347 345 343 341 340 340 341 342 343 344 344 343 343 343 343 343 343 343 343 343 343 343 343 343 343 343 343 342 342 342 341 341 341 340 340 339 339 338 337 337 336 335 334 334 333 332 331 330 330 329 329 329 329 329 329 329 329 328 328 328 327 327 326 325
356 353 350 348 346 344 343 341 339 338 339 340 342 343 344 343 343 343 343 343 342 342 342 342 342 342 342 343 342 342 342 342 342 342 341 341 340 340 339 339 338 338 337 336 336 335 334 334 333 332 331 330 329 329 329 329 329 328 328 328 328 328 327 327 326 326 325 324 323
352 349 346 345 343 342 341 339 337 337 338 340 342 343 343 343 342 342 342 342 342 342 342 342 342 342 342 342 342 342 342 341 341 341 341 340 340 339 339 338 337 337 336 336 335 334 333 332 332 331 330 329 329 329 328 328 328 328 327 327 327 326 326 325 325 324 323 322 322
349 346 343 342 341 340 338 337 336 337 338 340 341 342 342 342 342 341 341 341 341 341 341 341 342 342 342 342 342 342 341 341 341 340 340 340 339 338 338 337 336 336 335 335 334 333 332 332 331 330 329 329 329 328 328 328 327 327 327 326 326 325 325 324 324 323 322 321 320
346 343 341 339 339 337 336 335 335 337 339 341 341 341 341 341 341 340 340 340 340 341 341 341 341 342 342 342 341 341 341 340 340 339 339 339 338 337 337 336 335 335 335 334 333 332 332 331 330 329 329 329 328 328 328 327 327 326 326 326 325 325 324 324 323 322 320 320 319
344 341 339 338 336 334 333 333 335 337 339 340 341 340 340 339 340 339 340 340 340 340 341 341 341 341 341 341 340 340 340 340 339 339 338 338 337 336 336 335 335 334 334 333 332 332 331 330 330 330 329 329 329 328 328 327 327 326 326 325 325 324 324 323 322 321 320 319 318
343 340 338 336 334 332 331 332 335 337 339 339 339 339 339 338 339 339 339 339 340 340 341 341 341 341 340 340 340 339 339 339 339 338 338 337 336 336 335 334 334 333 333 332 332 331 331 330 330 330 330 329 329 328 328 327 326 326 325 325 324 324 323 322 320 319 318 318 317
342 339 337 334 330 329 330 332 335 337 338 338 338 337 337 337 338 338 339 339 340 340 340 340 340 340 340 339 339 339 338 338 338 337 336 336 335 335 334 333 333 332 332 332 332 331 331 331 331 331 331 330 329 328 328 327 326 325 324 324 323 322 321 320 319 318 317 317 316
341 338 334 330 328 328 330 333 335 337 337 336 336 336 336 337 337 338 339 339 340 340 340 340 340 339 339 339 338 338 337 337 336 336 335 335 334 334 333 333 332 332 332 332 332 332 332 332 332 331 331 330 329 328 327 326 325 324 323 322 321 320 319 318 317 317 316 316 316
339 335 331 327 326 328 331 334 335 335 335 335 335 335 336 336 337 338 339 339 339 339 339 339 339 338 338 338 337 337 337 336 335 335 334 334 333 333 332 332 332 332 332 332 333 333 333 333 332 331 331 330 328 327 326 324 323 322 321 320 319 318 318 317 316 316 316 316 316
335 331 327 325 326 329 332 333 333 333 333 334 334 335 336 336 337 338 338 339 339 339 338 338 337 337 337 337 336 336 336 335 334 334 333 333 333 332 332 332 332 332 332 333 333 333 333 333 332 331 330 329 327 326 324 323 321 320 319 318 317 316 316 316 316 316 316 316 316
331 327 325 325 327 330 332 332 332 332 332 333 334 335 335 336 337 338 338 338 338 338 337 337 337 336 336 336 335 335 335 334 334 333 333 333 332 332 332 332 332 333 333 333 333 333 333 332 332 332 331 329 326 324 322 320 319 318 317 316 315 315 315 315 316 316 317 317 317
327 324 324 326 328 330 330 331 331 331 332 332 334 334 335 336 337 338 338 338 337 337 336 336 336 335 335 335 334 334 334 334 333 333 333 332 332 332 332 332 333 333 334 334 333 333 333 333 333 332 331 329 326 323 320 319 318 317 315 315 314 314 314 315 316 316 317 317 317
324 324 325 327 328 329 329 330 330 331 332 333 334 335 336 337 337 337 337 337 336 336 335 335 335 335 334 334 334 333 333 333 333 333 332 332 332 332 332 332 333 334 334 334 334 333 333 333 333 332 331 329 325 322 319 318 316 315 314 314 314 314 314 315 316 316 316 316 316
323 323 325 326 327 328 329 330 330 331 332 333 334 335 336 337 337 337 336 336 335 335 335 334 334 334 334 333 333 333 333 333 332 332 332 332 332 332 333 333 334 334 334 334 334 334 334 333 333 332 331 329 326 322 319 316 315 314 314 313 314 314 315 316 316 316 316 316 316
322 323 324 326 327 328 329 330 331 332 333 333 334 335 336 336 336 336 335 335 334 334 334 333 333 333 333 333 332 332 332 332 332 332 332 332 332 332 333 334 334 335 335 335 335 335 334 334 333 332 331 329 326 322 319 316 315 314 314 314 314 314 315 316 316 316 316 316 316
322 323 324 326 327 328 329 330 332 332 333 334 335 335 335 336 336 335 334 334 333 333 332 332 332 332 332 332 331 331 331 331 332 332 332 333 333 333 333 334 335 335 336 336 335 335 334 334 333 332 331 329 327 323 320 318 317 316 315 314 314 314 315 316 316 315 316 316 317
321 322 324 325 327 329 330 331 332 333 333 334 334 335 335 335 335 334 333 332 332 331 331 331 331 331 331 331 331 331 331 331 332 332 333 333 333 333 334 334 335 336 336 336 335 335 334 333 333 332 331 330 327 324 321 319 318 316 315 314 314 314 315 315 315 315 316 317 318
321 322 324 326 328 330 331 332 332 333 333 334 334 334 334 333 333 332 331 331 331 330 331 331 331 331 331 331 330 330 331 331 332 332 333 333 334 334 334 335 335 336 336 336 335 335 334 334 333 332 332 331 328 325 322 320 318 316 314 314 314 314 314 314 315 315 317 318 319
322 323 325 327 329 331 332 332 333 333 333 333 333 333 333 332 331 331 330 330 330 330 330 330 330 330 330 330 330 330 330 331 332 333 334 334 334 334 335 335 335 336 336 335 335 335 334 334 334 334 334 332 328 325 322 319 317 316 315 315 314 314 313 313 314 316 318 319 319
323 325 326 329 330 332 333 333 333 333 333 332 332 332 331 331 330 330 329 329 329 329 329 329 329 329 329 329 329 330 330 331 332 333 334 335 335 335 334 334 335 335 335 335 335 335 335 335 335 336 335 333 328 324 321 319 318 317 315 315 314 314 313 314 315 317 319 319 317
325 326 328 330 332 333 333 333 333 332 332 332 331 330 330 330 330 329 329 328 328 328 328 328 328 329 329 329 329 330 331 332 333 334 335 335 335 335 334 334 334 335 335 336 336 336 336 337 338 338 336 332 327 324 321 319 318 317 316 315 315 314 313 314 316 317 317 316 315
326 328 330 331 333 333 334 333 333 332 331 331 330 330 329 329 329 329 328 328 328 328 328 328 328 328 329 329 329 330 331 332 333 334 335 335 336 335 334 334 334 335 336 336 336 336 337 339 340 339 335 330 327 324 322 320 318 317 316 316 315 314 313 314 315 315 314 313 314
328 330 331 333 333 334 334 333 332 331 330 330 329 329 329 328 328 328 328 328 328 327 327 327 328 328 329 329 329 330 331 332 334 334 335 335 335 335 335 334 334 335 336 337 337 338 339 341 341 338 333 329 326 324 322 320 319 318 317 316 314 313 313 314 313 312 312 313 317
330 331 333 334 334 333 333 332 331 330 329 329 328 328 328 328 328 328 328 327 327 327 327 327 327 328 328 329 329 330 331 332 333 334 334 334 335 335 335 335 335 335 337 338 338 339 341 342 340 335 330 329 326 324 322 321 319 318 316 315 314 314 313 313 312 311 312 316 321
331 332 333 334 333 332 332 331 330 329 328 328 328 327 327 327 327 327 327 327 326 326 326 326 327 328 328 329 329 330 331 332 333 334 334 334 334 335 335 335 335 336 337 339 340 341 341 341 337 333 329 328 326 324 323 321 319 318 316 315 314 314 313 313 312 312 315 320 323
332 333 333 333 332 331 330 329 328 328 327 327 327 327 327 326 326 326 326 326 326 326 326 326 327 327 329 329 330 330 330 331 332 333 334 334 334 335 336 336 336 337 338 340 341 341 340 338 333 330 328 327 326 325 324 322 320 318 316 315 314 313 312 312 312 315 319 323 324